Main page
METAR-TAF:

METAR-TAF

Airports :

Stuart Powell Field

Danville, Kentucky, United States

latitude: 37-34-40N, longitude: 084-46-11W, elevation: 1023 ft

Current weather observation

The report was made 29 minutes ago, at 03:10 UTC
Calm wind
Temperature 72°F
Humidity 73%
Pressure 30.05 in. Hg
Visibility: 10 miles
Clear sky

METAR: KDVK 030310Z AUTO 00000KT 10SM CLR 22/17 A3005 RMK AO2

Time: 23:39 (03:39 UTC)


TAF: missing

Weather observations and forecasts of more than 4000 airports (METAR and TAF reports).

The available stations are represented by yellow and red dots on the map.

Hover mouse over dot to see the name of the station.

Then click to see weather observations and forecasts.

To change the map : click on the green buttons with a black cross to zoom in, on the green button with a dash to zoom out, or on the green arrows for adjacent maps.


METAR-TAF: